Waarnemingen

Advertentie
Mijn weer
Gilze-Rijen, Nederland (6350): temperatuur & dauwpunt: 22.04.2017 02:00:00 - 28.04.2017 02:00:00 (CEST)Gilze-Rijen, Nederland (6350): temperatuur 5cm: 22.04.2017 02:00:00 - 28.04.2017 02:00:00 (CEST)Gilze-Rijen, Nederland (6350): windsnelheid & windstoten: 22.04.2017 02:00:00 - 28.04.2017 02:00:00 (CEST)Gilze-Rijen, Nederland (6350): windrichting: 22.04.2017 02:00:00 - 28.04.2017 02:00:00 (CEST)Gilze-Rijen, Nederland (6350): luchtdruk: 22.04.2017 02:00:00 - 28.04.2017 02:00:00 (CEST)Gilze-Rijen, Nederland (6350): zicht: 22.04.2017 02:00:00 - 28.04.2017 02:00:00 (CEST)Gilze-Rijen, Nederland (6350): neerslag: 22.04.2017 02:00:00 - 28.04.2017 02:00:00 (CEST)
Datum & Tijd tt [°C] td [°C] tt 5cm [°C] ff [km/u] ff [kn] fx [km/u] fx [kn] dd ppp [hPa] vv [km] rr [mm]
28.04.2017 02:00:00 4,5 1,8 3,8 9 5 11 6 Z 1015,0 10 0,0
28.04.2017 01:00:00 4,0 0,9 0,4 8 4 11 6 ZZW 1015,3 10 0,0
28.04.2017 00:00:00 4,8 0,6 2,2 8 4 11 6 ZZW 1015,5 10 0,0
27.04.2017 23:00:00 5,6 0,4 4,2 8 4 11 6 ZZW 1015,9 10 0,0
27.04.2017 22:00:00 4,4 -0,2 0,8 5 3 14 8 ZZW 1016,2 10 0,0
27.04.2017 21:00:00 6,9 -0,5 5,1 11 6 25 14 W 1016,3 10 0,0
27.04.2017 20:00:00 8,8 -3,7 7,9 18 10 32 18 WNW 1016,2 10 0,0
27.04.2017 19:00:00 9,8 -1,1 10,6 22 12 32 18 W 1016,1 10 0,0
27.04.2017 18:00:00 10,3 -1,0 11,2 21 11 36 19 WNW 1016,1 10 0,0
27.04.2017 17:00:00 9,4 0,6 10,2 22 12 36 19 WNW 1016,6 10 0,0
27.04.2017 16:00:00 11,4 0,5 12,6 18 10 32 18 WNW 1016,5 10 0,0
27.04.2017 15:00:00 9,7 3,8 10,8 8 4 18 10 O 1016,8 10 0,0
27.04.2017 14:00:00 7,9 1,8 8,6 13 7 36 19 WNW 1017,0 10 0,0
27.04.2017 13:00:00 9,9 -0,1 12,8 13 7 29 16 WNW 1016,9 10 0,0
27.04.2017 12:00:00 10,7 0,2 11,2 13 7 22 12 - 1017,3 10 0,0
27.04.2017 11:00:00 8,7 1,5 12,4 8 4 22 12 NNW 1017,4 10 0,0
27.04.2017 10:00:00 7,7 1,1 9,0 11 6 18 10 W 1017,4 10 0,0
27.04.2017 09:00:00 7,3 1,7 8,2 5 3 11 6 WNW 1017,4 10 0,0
27.04.2017 08:00:00 3,2 1,4 2,1 4 2 7 4 W 1017,2 10 0,0
27.04.2017 07:00:00 -1,1 -1,7 -5,6 0 0 7 4 N 1016,8 10 0,0
27.04.2017 06:00:00 -1,7 -2,1 -7,1 2 1 7 4 W 1016,7 9 0,0
27.04.2017 05:00:00 -1,0 -1,6 -6,1 4 2 7 4 W 1016,6 0,9 0,0
27.04.2017 04:00:00 -0,8 -1,2 -5,8 4 2 7 4 - 1016,6 10 0,0
27.04.2017 03:00:00 -0,5 -1,3 -5,6 2 1 7 4 WZW 1016,6 10 0,0
27.04.2017 02:00:00 0,8 -1,0 -3,6 5 3 7 4 NW 1016,6 10 0,0
27.04.2017 01:00:00 3,1 0,2 -0,2 8 4 14 8 NW 1016,6 10 0,0
27.04.2017 00:00:00 4,5 1,0 2,4 9 5 14 8 NNW 1016,5 10 0,0
26.04.2017 23:00:00 5,1 1,2 2,9 9 5 18 10 NNW 1016,2 10 0,0
26.04.2017 22:00:00 4,3 0,9 2,1 8 4 22 12 NW 1015,9 10 0,0
26.04.2017 21:00:00 5,8 1,5 4,0 9 5 29 16 NNW 1015,2 10 0,0
26.04.2017 20:00:00 7,5 2,5 7,5 11 6 29 16 N 1014,7 10 0,0
26.04.2017 19:00:00 7,2 2,9 7,2 21 11 32 18 NNO 1014,4 10 0,0
26.04.2017 18:00:00 10,3 1,2 10,2 15 8 32 18 NNO 1013,8 10 0,0
26.04.2017 17:00:00 10,3 1,0 12,8 13 7 36 19 NNO 1013,8 10 0,0
26.04.2017 16:00:00 8,9 0,8 8,7 15 8 40 21 W 1013,8 10 0,0
26.04.2017 15:00:00 11,2 0,8 13,4 15 8 40 21 N 1013,4 10 0,0
26.04.2017 14:00:00 10,8 0,0 10,2 11 6 29 16 N 1013,3 10 0,0
26.04.2017 13:00:00 9,2 0,3 10,7 15 8 32 18 WNW 1013,2 10 0,0
26.04.2017 12:00:00 10,2 -0,8 13,6 13 7 29 16 N 1013,0 10 0,0
26.04.2017 11:00:00 8,2 -0,6 9,4 13 7 18 10 - 1012,9 10 0,0
26.04.2017 10:00:00 8,4 1,1 9,9 9 5 18 10 NW 1012,7 10 0,0
26.04.2017 09:00:00 6,6 1,1 7,7 9 5 14 8 W 1012,5 10 0,0
26.04.2017 08:00:00 3,9 2,2 3,7 8 4 11 6 WZW 1012,0 10 0,0
26.04.2017 07:00:00 1,0 0,3 -1,5 8 4 11 6 W 1011,4 10 0,0
26.04.2017 06:00:00 0,9 -0,2 -1,0 8 4 14 8 W 1011,1 10 0,0
26.04.2017 05:00:00 2,0 0,6 1,1 9 5 14 8 W 1011,2 10 0,0
26.04.2017 04:00:00 1,9 0,8 0,2 5 3 22 12 WZW 1011,1 10 0,0
26.04.2017 03:00:00 2,1 0,3 -1,2 8 4 11 6 ZW 1010,9 10 0,0
26.04.2017 02:00:00 2,2 -0,1 -0,5 8 4 14 8 ZW 1010,7 10 0,0
26.04.2017 01:00:00 2,2 -0,4 -0,4 9 5 14 8 ZW 1010,9 10 0,0
26.04.2017 00:00:00 2,4 -0,4 -1,6 8 4 11 6 ZW 1010,9 10 0,0
25.04.2017 23:00:00 2,7 -0,6 -1,7 4 2 11 6 WZW 1011,3 10 0,0
25.04.2017 22:00:00 3,6 -0,6 -0,3 8 4 11 6 ZZW 1011,3 10 0,0
25.04.2017 21:00:00 4,2 -1,5 2,5 11 6 29 16 WNW 1011,1 10 0,0
25.04.2017 20:00:00 7,3 -0,9 6,8 22 12 40 21 NW 1011,2 10 0,0
25.04.2017 19:00:00 7,4 -1,0 7,1 26 14 43 23 NW 1011,1 10 0,0
25.04.2017 18:00:00 8,1 -1,3 8,4 29 16 47 25 WNW 1011,1 10 0,0
25.04.2017 17:00:00 8,7 -3,1 9,3 29 16 43 23 WNW 1011,0 10 0,0
25.04.2017 16:00:00 8,8 -2,0 9,8 29 16 47 25 WNW 1010,8 10 0,0
25.04.2017 15:00:00 10,1 -2,2 11,5 29 16 43 23 WNW 1010,8 10 0,0
25.04.2017 14:00:00 8,4 0,3 9,2 26 14 43 23 NW 1010,6 10 0,0
25.04.2017 13:00:00 9,2 2,1 10,6 26 14 50 27 NNW 1010,0 10 0,0
25.04.2017 12:00:00 7,8 2,9 6,1 21 11 47 25 WNW 1009,6 10 0,0
25.04.2017 11:00:00 7,4 2,6 7,4 24 13 43 23 WNW 1009,0 10 0,1
25.04.2017 10:00:00 5,7 2,1 5,9 28 15 43 23 W 1008,7 10 0,0
25.04.2017 09:00:00 6,5 0,8 6,8 21 11 36 19 W 1008,0 10 0,0
25.04.2017 08:00:00 5,4 0,6 5,0 13 7 29 16 WZW 1007,8 10 0,0
25.04.2017 07:00:00 4,9 0,0 3,9 13 7 29 16 W 1007,4 10 0,0
25.04.2017 06:00:00 4,9 0,9 3,6 11 6 29 16 W 1007,0 10 0,0
25.04.2017 05:00:00 5,1 2,3 3,9 13 7 32 18 WNW 1006,9 10 0,0
25.04.2017 04:00:00 6,6 3,6 5,7 11 6 22 12 W 1006,6 10 0,0
25.04.2017 03:00:00 6,4 4,9 6,0 9 5 14 8 ZW 1006,9 10 0,0
25.04.2017 02:00:00 6,7 5,2 6,3 5 3 14 8 WZW 1007,5 10 0,0
25.04.2017 01:00:00 7,1 5,0 6,7 9 5 32 18 W 1007,9 10 0,3
25.04.2017 00:00:00 7,9 6,9 7,7 13 7 29 16 WNW 1008,3 8 1,1
24.04.2017 23:00:00 9,5 6,6 9,2 16 9 40 21 W 1008,4 10 0,0
24.04.2017 22:00:00 11,2 6,3 10,6 8 4 22 12 WZW 1008,7 10 0,0
24.04.2017 21:00:00 11,6 5,9 11,0 11 6 22 12 WZW 1009,3 10 0,0
24.04.2017 20:00:00 12,4 5,0 12,1 13 7 25 14 WZW 1009,9 10 0,0
24.04.2017 19:00:00 12,9 6,1 12,7 13 7 29 16 W 1010,6 10 0,0
24.04.2017 18:00:00 13,8 4,6 13,9 18 10 29 16 WZW 1011,0 10 0,0
24.04.2017 17:00:00 13,0 6,2 12,9 15 8 32 18 W 1011,8 10 0,0
24.04.2017 16:00:00 13,9 4,1 14,6 22 12 36 19 W 1012,7 10 0,0
24.04.2017 15:00:00 14,7 5,2 16,9 21 11 36 19 W 1013,5 10 0,0
24.04.2017 14:00:00 14,9 5,9 16,1 21 11 40 21 WZW 1014,3 10 0,0
24.04.2017 13:00:00 14,0 4,9 17,0 18 10 36 19 WZW 1015,2 10 0,0
24.04.2017 12:00:00 12,9 3,8 15,3 22 12 36 19 ZW 1015,9 10 0,0
24.04.2017 11:00:00 11,3 2,2 12,8 18 10 32 18 ZW 1016,3 10 0,0
24.04.2017 10:00:00 9,8 1,7 10,4 16 9 29 16 ZW 1016,9 10 0,0
24.04.2017 09:00:00 8,4 1,4 8,4 16 9 29 16 ZZW 1017,5 10 0,0
24.04.2017 08:00:00 6,4 1,1 5,9 9 5 18 10 ZZW 1017,9 10 0,0
24.04.2017 07:00:00 5,1 0,9 4,5 13 7 22 12 ZZW 1018,2 10 0,0
24.04.2017 06:00:00 4,8 1,0 4,0 13 7 18 10 ZZW 1018,6 10 0,0
24.04.2017 05:00:00 4,7 1,5 3,7 11 6 14 8 ZZW 1019,6 10 0,0
24.04.2017 04:00:00 3,7 1,1 2,2 11 6 14 8 Z 1020,4 10 0,0
24.04.2017 03:00:00 3,2 0,6 -0,4 9 5 11 6 Z 1021,1 10 0,0
24.04.2017 02:00:00 1,8 -0,6 -3,2 8 4 11 6 ZZW 1022,0 10 0,0
24.04.2017 01:00:00 2,5 -0,1 -1,8 8 4 11 6 Z 1022,8 10 0,0
24.04.2017 00:00:00 2,4 0,4 -3,1 5 3 7 4 ZZW 1023,6 10 0,0
23.04.2017 23:00:00 3,0 0,8 -2,0 4 2 7 4 Z 1024,2 10 0,0
23.04.2017 22:00:00 4,0 1,7 -0,6 4 2 7 4 ZZW 1024,7 10 0,0
23.04.2017 21:00:00 7,6 1,9 3,0 2 1 7 4 - 1024,8 10 0,0
23.04.2017 20:00:00 9,8 1,8 9,2 4 2 11 6 - 1024,9 10 0,0
23.04.2017 19:00:00 9,5 2,0 9,7 11 6 18 10 N 1025,4 10 0,0
23.04.2017 18:00:00 10,6 0,6 11,5 9 5 22 12 NNW 1025,5 10 0,0
23.04.2017 17:00:00 10,7 2,4 12,9 13 7 25 14 NNO 1025,9 10 0,0
23.04.2017 16:00:00 8,7 1,8 8,8 13 7 22 12 NW 1026,4 10 0,0
23.04.2017 15:00:00 9,3 1,9 9,4 13 7 25 14 NW 1026,5 10 0,0
23.04.2017 14:00:00 9,4 1,0 10,2 11 6 25 14 - 1026,9 10 0,0
23.04.2017 13:00:00 8,9 3,3 9,1 13 7 43 23 N 1027,5 10 0,0
23.04.2017 12:00:00 9,4 0,6 10,9 13 7 22 12 NW 1027,4 10 0,0
23.04.2017 11:00:00 9,3 1,7 8,8 15 8 25 14 WNW 1027,4 10 0,0
23.04.2017 10:00:00 9,0 1,0 10,7 11 6 29 16 NNW 1027,3 10 0,0
23.04.2017 09:00:00 7,6 1,7 8,8 9 5 18 10 NW 1027,2 10 0,0
23.04.2017 08:00:00 6,1 2,0 5,9 11 6 14 8 W 1026,9 10 0,0
23.04.2017 07:00:00 3,8 2,2 3,0 8 4 11 6 W 1026,6 10 0,0
23.04.2017 06:00:00 4,5 2,0 3,9 8 4 11 6 W 1026,4 10 0,0
23.04.2017 05:00:00 2,7 1,1 0,4 8 4 11 6 W 1026,4 10 0,0
23.04.2017 04:00:00 3,5 1,6 0,4 4 2 7 4 - 1026,3 10 0,0
23.04.2017 03:00:00 4,3 1,4 1,1 5 3 11 6 W 1026,4 10 0,0
23.04.2017 02:00:00 4,4 1,3 2,8 5 3 14 8 WNW 1026,7 10 0,0
23.04.2017 01:00:00 5,5 1,3 4,5 15 8 25 14 WNW 1026,8 10 0,0
23.04.2017 00:00:00 5,5 0,6 5,1 15 8 25 14 WNW 1026,8 10 0,0
22.04.2017 23:00:00 5,5 0,4 4,0 13 7 25 14 NW 1027,0 10 0,0
22.04.2017 22:00:00 6,1 1,9 3,7 5 3 22 12 NNW 1026,8 10 0,0
22.04.2017 21:00:00 7,4 1,3 7,0 16 9 36 19 NNW 1026,5 10 0,0
22.04.2017 20:00:00 8,3 0,3 7,6 16 9 36 19 NNW 1026,4 10 0,0
22.04.2017 19:00:00 9,1 0,7 9,1 22 12 40 21 NNW 1026,4 10 0,0
22.04.2017 18:00:00 9,8 0,4 10,0 26 14 43 23 NNW 1026,3 10 0,0
22.04.2017 17:00:00 10,4 0,0 11,6 22 12 40 21 NW 1026,3 10 0,0
22.04.2017 16:00:00 10,9 1,5 11,8 22 12 43 23 NW 1026,6 43 0,1
22.04.2017 15:00:00 7,9 4,4 8,2 29 16 43 23 N 1027,4 10 0,0
22.04.2017 14:00:00 11,0 2,9 12,5 18 10 32 18 NNW 1026,8 10 0,0
22.04.2017 13:00:00 10,3 2,3 12,5 21 11 40 21 NW 1027,4 10 0,0
22.04.2017 12:00:00 10,3 1,5 11,2 22 12 36 19 N 1027,5 10 0,0
22.04.2017 11:00:00 10,2 3,0 11,2 16 9 36 19 NNW 1027,4 10 0,0
22.04.2017 10:00:00 9,7 4,5 10,1 15 8 25 14 N 1027,4 10 0,0
22.04.2017 09:00:00 8,0 5,9 8,3 9 5 14 8 WNW 1027,2 10 0,0
22.04.2017 08:00:00 6,5 5,4 6,5 5 3 7 4 W 1026,9 10 0,0
22.04.2017 07:00:00 6,0 5,5 5,8 5 3 14 8 WNW 1026,6 10 0,1
22.04.2017 06:00:00 6,0 4,9 5,8 13 7 43 23 N 1026,3 8 0,4
22.04.2017 05:00:00 6,7 5,7 6,6 22 12 40 21 N 1026,2 10 0,2
22.04.2017 04:00:00 9,8 8,8 9,5 8 4 11 6 WNW 1025,4 7 0,1
22.04.2017 03:00:00 9,8 8,2 9,5 8 4 14 8 W 1025,8 10 0,0
22.04.2017 02:00:00 10,7 7,3 10,3 9 5 18 10 W 1026,1 10 0,0

tt = temperatuur
td = dauwpunt
tt 5cm = temperatuur 5cm
ff = windsnelheid
fx = windstoten
dd = windrichting
ppp = luchtdruk
vv = zicht
rr = neerslag

Weerstations in de omgeving